TNO5555 SBVT-SBBE

Flight info

Callsign TNO5555
Flight time 2h 53m
Altitude 37000
Route TERAT DCT OSAGU DCT LOMAB/N0444F360 DCT TOBTA/N0451F380 DCT KILAB DCT ARVIB/N0445F370 UZ3 KUGEL/N0444F380 DCT KODSU
Aircraft A20N/M-SDE2E3FGHIRWXY/LB1

Departure

Time 2026-04-25 19:32
Airport Eurico de Aguiar Salles International Airport (SBVT)

Arrival

Time 2026-04-25 22:26
Airport Val de Cans/Júlio Cezar Ribeiro International Airport (SBBE)
Time Latitude Longitude Altitude Speed Heading
2026-04-25 19:26 -20.25715 -40.28824 29 ft 0 kts 217°
2026-04-25 19:26 -20.25720 -40.28822 29 ft 2 kts 165°
2026-04-25 19:26 -20.25718 -40.28799 28 ft 7 kts 84°
2026-04-25 19:27 -20.25727 -40.28757 28 ft 8 kts 128°
2026-04-25 19:27 -20.25748 -40.28723 27 ft 11 kts 116°
2026-04-25 19:27 -20.25826 -40.28575 28 ft 12 kts 123°
2026-04-25 19:27 -20.25860 -40.28505 29 ft 10 kts 110°
2026-04-25 19:28 -20.25888 -40.28373 29 ft 20 kts 108°
2026-04-25 19:28 -20.25915 -40.28239 30 ft 17 kts 92°
2026-04-25 19:28 -20.25956 -40.28132 31 ft 15 kts 143°
2026-04-25 19:28 -20.26057 -40.28110 32 ft 21 kts 169°
2026-04-25 19:29 -20.26199 -40.28080 33 ft 20 kts 169°
2026-04-25 19:29 -20.26330 -40.28056 34 ft 18 kts 170°
2026-04-25 19:29 -20.26446 -40.28041 34 ft 16 kts 171°
2026-04-25 19:29 -20.26547 -40.28025 36 ft 14 kts 171°
2026-04-25 19:30 -20.26635 -40.28011 36 ft 12 kts 171°
2026-04-25 19:30 -20.26709 -40.27998 37 ft 9 kts 161°
2026-04-25 19:30 -20.26723 -40.27963 38 ft 8 kts 77°
2026-04-25 19:30 -20.26657 -40.27919 37 ft 16 kts 23°
2026-04-25 19:31 -20.26536 -40.27868 34 ft 7 kts 348°
2026-04-25 19:31 -20.26365 -40.27911 33 ft 59 kts 350°
2026-04-25 19:31 -20.25723 -40.27985 32 ft 128 kts 352°
2026-04-25 19:31 -20.24657 -40.28147 199 ft 170 kts 351°
2026-04-25 19:32 -20.23399 -40.28364 493 ft 202 kts 354°
2026-04-25 19:32 -20.22429 -40.28512 732 ft 221 kts 355°
2026-04-25 19:32 -20.20424 -40.28013 1514 ft 235 kts 40°
2026-04-25 19:32 -20.20028 -40.27606 1716 ft 237 kts 50°
2026-04-25 19:33 -20.18424 -40.25187 2787 ft 244 kts 51°
2026-04-25 19:33 -20.17405 -40.23723 3427 ft 248 kts 49°
2026-04-25 19:33 -20.16178 -40.22415 3977 ft 254 kts 30°
2026-04-25 19:33 -20.15093 -40.21937 4220 ft 258 kts
2026-04-25 19:34 -20.13312 -40.22146 4666 ft 262 kts 338°
2026-04-25 19:34 -20.11623 -40.22915 5248 ft 267 kts 332°
2026-04-25 19:34 -20.09935 -40.23787 5885 ft 271 kts 331°
2026-04-25 19:34 -20.07690 -40.24950 6849 ft 271 kts 331°
2026-04-25 19:35 -20.06541 -40.25539 7336 ft 271 kts 331°
2026-04-25 19:35 -20.04853 -40.26398 8017 ft 273 kts 331°
2026-04-25 19:35 -20.02553 -40.27564 8993 ft 275 kts 331°
2026-04-25 19:35 -20.01404 -40.28144 9506 ft 276 kts 330°
2026-04-25 19:36 -19.99662 -40.29019 10193 ft 280 kts 331°
2026-04-25 19:36 -19.97850 -40.29935 10508 ft 297 kts 331°
2026-04-25 19:36 -19.95926 -40.30910 10766 ft 315 kts 332°
2026-04-25 19:36 -19.93893 -40.31934 10979 ft 331 kts 332°
2026-04-25 19:37 -19.91765 -40.33005 11216 ft 344 kts 332°
2026-04-25 19:37 -19.88839 -40.34434 11630 ft 354 kts 336°
2026-04-25 19:37 -19.87253 -40.34995 11944 ft 359 kts 342°
2026-04-25 19:37 -19.84814 -40.35647 12427 ft 363 kts 345°
2026-04-25 19:38 -19.82371 -40.36243 12867 ft 367 kts 345°
2026-04-25 19:38 -19.79870 -40.36848 13334 ft 371 kts 346°
2026-04-25 19:38 -19.77345 -40.37463 13798 ft 374 kts 346°
2026-04-25 19:38 -19.74796 -40.38086 14193 ft 377 kts 346°
2026-04-25 19:39 -19.72229 -40.38715 14584 ft 381 kts 346°
2026-04-25 19:39 -19.69633 -40.39354 14975 ft 384 kts 346°
2026-04-25 19:39 -19.67013 -40.39999 15372 ft 388 kts 346°
2026-04-25 19:39 -19.64372 -40.40648 15780 ft 392 kts 345°
2026-04-25 19:40 -19.61737 -40.41296 16156 ft 396 kts 345°
2026-04-25 19:40 -19.59046 -40.41958 16560 ft 398 kts 346°
2026-04-25 19:40 -19.56340 -40.42623 16977 ft 401 kts 346°
2026-04-25 19:40 -19.53609 -40.43294 17348 ft 404 kts 346°
2026-04-25 19:41 -19.50862 -40.43969 17721 ft 407 kts 346°
2026-04-25 19:41 -19.48090 -40.44650 18065 ft 410 kts 346°
2026-04-25 19:41 -19.45303 -40.45334 18404 ft 413 kts 346°
2026-04-25 19:41 -19.43441 -40.45791 18615 ft 415 kts 346°
2026-04-25 19:42 -19.39709 -40.46706 19050 ft 417 kts 346°
2026-04-25 19:42 -19.36874 -40.47401 19367 ft 419 kts 346°
2026-04-25 19:42 -19.34029 -40.48099 19682 ft 421 kts 346°
2026-04-25 19:42 -19.31174 -40.48798 19978 ft 422 kts 346°
2026-04-25 19:43 -19.28303 -40.49502 20264 ft 424 kts 346°
2026-04-25 19:43 -19.25421 -40.50208 20536 ft 427 kts 346°
2026-04-25 19:43 -19.22521 -40.50918 20830 ft 429 kts 346°
2026-04-25 19:43 -19.19610 -40.51630 21141 ft 430 kts 346°
2026-04-25 19:44 -19.16688 -40.52345 21462 ft 432 kts 346°
2026-04-25 19:44 -19.13749 -40.53064 21773 ft 434 kts 346°
2026-04-25 19:44 -19.10803 -40.53784 22100 ft 436 kts 346°
2026-04-25 19:44 -19.07837 -40.54509 22425 ft 438 kts 346°
2026-04-25 19:45 -19.04899 -40.55227 22748 ft 440 kts 346°
2026-04-25 19:45 -19.01909 -40.55957 23071 ft 442 kts 346°
2026-04-25 19:45 -18.98904 -40.56692 23378 ft 445 kts 346°
2026-04-25 19:45 -18.95881 -40.57429 23659 ft 447 kts 346°
2026-04-25 19:46 -18.92844 -40.58170 23927 ft 449 kts 346°
2026-04-25 19:46 -18.89795 -40.58914 24208 ft 450 kts 346°
2026-04-25 19:46 -18.86733 -40.59660 24491 ft 452 kts 346°
2026-04-25 19:46 -18.83665 -40.60408 24782 ft 454 kts 346°
2026-04-25 19:47 -18.80623 -40.61149 25094 ft 455 kts 346°
2026-04-25 19:47 -18.77533 -40.61901 25405 ft 457 kts 346°
2026-04-25 19:47 -18.74426 -40.62658 25706 ft 459 kts 346°
2026-04-25 19:47 -18.71312 -40.63416 25999 ft 460 kts 346°
2026-04-25 19:48 -18.68185 -40.64176 26281 ft 462 kts 346°
2026-04-25 19:48 -18.65044 -40.64940 26580 ft 464 kts 346°
2026-04-25 19:48 -18.61901 -40.65704 26872 ft 466 kts 346°
2026-04-25 19:48 -18.58730 -40.66475 27164 ft 467 kts 346°
2026-04-25 19:49 -18.55560 -40.67245 27439 ft 469 kts 346°
2026-04-25 19:49 -18.53450 -40.67757 27623 ft 470 kts 346°
2026-04-25 19:49 -18.49217 -40.68784 27982 ft 472 kts 346°
2026-04-25 19:49 -18.46006 -40.69563 28239 ft 474 kts 346°
2026-04-25 19:50 -18.39668 -40.71500 28801 ft 475 kts 337°
2026-04-25 19:50 -18.36635 -40.72857 29195 ft 473 kts 335°
2026-04-25 19:50 -18.33649 -40.74300 29586 ft 471 kts 334°
2026-04-25 19:51 -18.30733 -40.75759 29958 ft 470 kts 333°
2026-04-25 19:51 -18.27788 -40.77245 30277 ft 469 kts 333°
2026-04-25 19:51 -18.24849 -40.78725 30572 ft 468 kts 333°
2026-04-25 19:51 -18.21913 -40.80192 30858 ft 468 kts 333°
2026-04-25 19:52 -18.18969 -40.81651 31148 ft 467 kts 334°
2026-04-25 19:52 -18.16033 -40.83099 31441 ft 466 kts 334°
2026-04-25 19:52 -18.13100 -40.84541 31734 ft 465 kts 334°
2026-04-25 19:52 -18.10178 -40.85974 32019 ft 464 kts 334°
2026-04-25 19:53 -18.07253 -40.87408 32308 ft 463 kts 334°
2026-04-25 19:53 -18.04378 -40.88816 32588 ft 462 kts 334°
2026-04-25 19:53 -18.01470 -40.90241 32851 ft 461 kts 334°
2026-04-25 19:53 -17.98569 -40.91662 33117 ft 460 kts 334°
2026-04-25 19:54 -17.95671 -40.93082 33397 ft 459 kts 334°
2026-04-25 19:54 -17.92782 -40.94497 33665 ft 458 kts 334°
2026-04-25 19:54 -17.89903 -40.95907 33919 ft 457 kts 334°
2026-04-25 19:54 -17.87995 -40.96841 34076 ft 456 kts 334°
2026-04-25 19:55 -17.84147 -40.98723 34351 ft 455 kts 334°
2026-04-25 19:55 -17.81278 -41.00127 34558 ft 455 kts 334°
2026-04-25 19:55 -17.78413 -41.01527 34736 ft 454 kts 334°
2026-04-25 19:55 -17.75550 -41.02927 34926 ft 454 kts 334°
2026-04-25 19:56 -17.72691 -41.04323 35114 ft 453 kts 334°
2026-04-25 19:56 -17.69835 -41.05718 35303 ft 452 kts 334°
2026-04-25 19:56 -17.66982 -41.07111 35487 ft 452 kts 334°
2026-04-25 19:56 -17.64136 -41.08499 35651 ft 451 kts 334°
2026-04-25 19:57 -17.61328 -41.09869 35819 ft 451 kts 334°
2026-04-25 19:57 -17.58487 -41.11255 35977 ft 450 kts 334°
2026-04-25 19:57 -17.55645 -41.12640 36137 ft 450 kts 334°
2026-04-25 19:57 -17.52810 -41.14022 36265 ft 450 kts 334°
2026-04-25 19:58 -17.49970 -41.15406 36397 ft 450 kts 334°
2026-04-25 19:58 -17.47133 -41.16787 36545 ft 449 kts 334°
2026-04-25 19:58 -17.44295 -41.18169 36684 ft 449 kts 334°
2026-04-25 19:58 -17.41466 -41.19546 36816 ft 449 kts 334°
2026-04-25 19:59 -17.38637 -41.20922 36943 ft 449 kts 334°
2026-04-25 19:59 -17.33003 -41.23661 36999 ft 450 kts 334°
2026-04-25 20:00 -17.27334 -41.26415 37001 ft 449 kts 334°
2026-04-25 20:00 -17.21671 -41.29165 37007 ft 449 kts 334°
2026-04-25 20:01 -17.13199 -41.33277 37009 ft 449 kts 334°
2026-04-25 20:01 -17.07527 -41.36026 37016 ft 449 kts 334°
2026-04-25 20:02 -17.01867 -41.38768 37009 ft 448 kts 334°
2026-04-25 20:02 -16.96206 -41.41508 37008 ft 448 kts 334°
2026-04-25 20:03 -16.90548 -41.44245 37006 ft 448 kts 334°
2026-04-25 20:03 -16.84887 -41.46983 37000 ft 448 kts 334°
2026-04-25 20:04 -16.79264 -41.49699 36999 ft 448 kts 334°
2026-04-25 20:04 -16.73605 -41.52431 36997 ft 448 kts 334°
2026-04-25 20:05 -16.67946 -41.55162 36995 ft 448 kts 334°
2026-04-25 20:05 -16.62284 -41.57892 36989 ft 448 kts 334°
2026-04-25 20:06 -16.56661 -41.60602 36991 ft 449 kts 334°
2026-04-25 20:06 -16.50994 -41.63331 36988 ft 448 kts 334°
2026-04-25 20:07 -16.45328 -41.66058 36985 ft 449 kts 334°
2026-04-25 20:07 -16.39663 -41.68782 36993 ft 449 kts 334°
2026-04-25 20:08 -16.33996 -41.71506 36991 ft 449 kts 334°
2026-04-25 20:08 -16.28321 -41.74231 36998 ft 449 kts 334°
2026-04-25 20:09 -16.22680 -41.76940 36999 ft 450 kts 334°
2026-04-25 20:09 -16.17002 -41.79664 37000 ft 449 kts 335°
2026-04-25 20:10 -16.11321 -41.82388 37003 ft 449 kts 334°
2026-04-25 20:10 -16.05643 -41.85108 37006 ft 449 kts 335°
2026-04-25 20:11 -16.00000 -41.87809 37004 ft 450 kts 335°
2026-04-25 20:11 -15.94308 -41.90533 37004 ft 450 kts 335°
2026-04-25 20:12 -15.88615 -41.93255 37003 ft 450 kts 335°
2026-04-25 20:12 -15.83889 -41.95514 37005 ft 450 kts 335°
2026-04-25 20:13 -15.77272 -41.98675 37007 ft 450 kts 335°
2026-04-25 20:13 -15.71578 -42.01393 37008 ft 451 kts 335°
2026-04-25 20:14 -15.65873 -42.04114 37009 ft 451 kts 335°
2026-04-25 20:14 -15.60166 -42.06834 37010 ft 451 kts 335°
2026-04-25 20:15 -15.54467 -42.09549 37016 ft 451 kts 336°
2026-04-25 20:15 -15.48797 -42.12249 37013 ft 451 kts 335°
2026-04-25 20:16 -15.43051 -42.14984 37018 ft 451 kts 336°
2026-04-25 20:16 -15.37381 -42.17680 37018 ft 452 kts 336°
2026-04-25 20:17 -15.31662 -42.20398 37021 ft 452 kts 336°
2026-04-25 20:17 -15.25948 -42.23112 37018 ft 452 kts 336°
2026-04-25 20:18 -15.20234 -42.25825 37022 ft 452 kts 336°
2026-04-25 20:18 -15.14551 -42.28521 37022 ft 453 kts 336°
2026-04-25 20:19 -15.08784 -42.31255 37024 ft 453 kts 336°
2026-04-25 20:19 -15.03048 -42.33973 37021 ft 453 kts 336°
2026-04-25 20:20 -14.97354 -42.36669 37020 ft 453 kts 336°
2026-04-25 20:20 -14.91624 -42.39381 37019 ft 453 kts 336°
2026-04-25 20:21 -14.85893 -42.42093 37017 ft 453 kts 337°
2026-04-25 20:21 -14.80162 -42.44802 37015 ft 453 kts 337°
2026-04-25 20:22 -14.76329 -42.46613 37010 ft 453 kts 337°
2026-04-25 20:22 -14.68705 -42.50213 37005 ft 453 kts 337°
2026-04-25 20:23 -14.62976 -42.52917 37001 ft 453 kts 337°
2026-04-25 20:23 -14.57245 -42.55619 37005 ft 453 kts 337°
2026-04-25 20:24 -14.51549 -42.58304 37000 ft 453 kts 337°
2026-04-25 20:24 -14.45820 -42.61001 37002 ft 453 kts 337°
2026-04-25 20:25 -14.40090 -42.63699 36995 ft 453 kts 337°
2026-04-25 20:25 -14.34360 -42.66397 36993 ft 452 kts 337°
2026-04-25 20:26 -14.28668 -42.69075 36992 ft 453 kts 337°
2026-04-25 20:26 -14.22941 -42.71767 36988 ft 453 kts 337°
2026-04-25 20:27 -14.17206 -42.74461 36990 ft 453 kts 337°
2026-04-25 20:27 -14.11476 -42.77151 36989 ft 453 kts 337°
2026-04-25 20:28 -14.05744 -42.79841 36978 ft 453 kts 337°
2026-04-25 20:28 -14.00054 -42.82509 36976 ft 452 kts 337°
2026-04-25 20:29 -13.94322 -42.85196 36980 ft 453 kts 337°
2026-04-25 20:29 -13.88593 -42.87880 36975 ft 453 kts 337°
2026-04-25 20:30 -13.82857 -42.90566 36971 ft 453 kts 337°
2026-04-25 20:30 -13.77124 -42.93249 36974 ft 453 kts 337°
2026-04-25 20:31 -13.71429 -42.95912 36971 ft 453 kts 337°
2026-04-25 20:31 -13.65691 -42.98595 36972 ft 453 kts 337°
2026-04-25 20:32 -13.59951 -43.01277 36967 ft 453 kts 338°
2026-04-25 20:32 -13.54207 -43.03959 36961 ft 453 kts 338°
2026-04-25 20:33 -13.48500 -43.06622 36966 ft 453 kts 338°
2026-04-25 20:33 -13.43693 -43.08865 36964 ft 453 kts 338°
2026-04-25 20:34 -13.37013 -43.11979 36967 ft 453 kts 338°
2026-04-25 20:34 -13.31268 -43.14657 36963 ft 453 kts 338°
2026-04-25 20:35 -13.25529 -43.17329 36961 ft 453 kts 338°
2026-04-25 20:35 -13.19782 -43.20005 36953 ft 453 kts 338°
2026-04-25 20:36 -13.14080 -43.22658 36953 ft 453 kts 338°
2026-04-25 20:36 -13.08336 -43.25329 36955 ft 453 kts 338°
2026-04-25 20:37 -13.02588 -43.28000 36948 ft 453 kts 338°
2026-04-25 20:37 -12.96844 -43.30669 36942 ft 453 kts 338°
2026-04-25 20:38 -12.91099 -43.33336 36949 ft 453 kts 338°
2026-04-25 20:38 -12.85393 -43.35984 36939 ft 453 kts 338°
2026-04-25 20:39 -12.79645 -43.38650 36941 ft 453 kts 338°
2026-04-25 20:39 -12.74876 -43.40861 36944 ft 453 kts 338°
2026-04-25 20:40 -12.68163 -43.43972 36939 ft 453 kts 338°
2026-04-25 20:40 -12.62425 -43.46629 36935 ft 453 kts 338°
2026-04-25 20:41 -12.56682 -43.49288 36935 ft 453 kts 338°
2026-04-25 20:41 -12.50943 -43.51943 36941 ft 453 kts 338°
2026-04-25 20:42 -12.45203 -43.54598 36938 ft 452 kts 338°
2026-04-25 20:42 -12.39509 -43.57230 36945 ft 452 kts 338°
2026-04-25 20:43 -12.33770 -43.59881 36942 ft 452 kts 338°
2026-04-25 20:43 -12.28037 -43.62529 36939 ft 452 kts 338°
2026-04-25 20:44 -12.22301 -43.65176 36944 ft 452 kts 338°
2026-04-25 20:44 -12.16570 -43.67821 36942 ft 452 kts 338°
2026-04-25 20:45 -12.10881 -43.70444 36945 ft 451 kts 338°
2026-04-25 20:45 -12.05154 -43.73083 36941 ft 452 kts 338°
2026-04-25 20:46 -11.99428 -43.75721 36948 ft 451 kts 338°
2026-04-25 20:46 -11.93698 -43.78360 36933 ft 451 kts 338°
2026-04-25 20:47 -11.88019 -43.80974 36936 ft 451 kts 338°
2026-04-25 20:47 -11.82298 -43.83606 36940 ft 451 kts 338°
2026-04-25 20:48 -11.76581 -43.86235 36937 ft 451 kts 338°
2026-04-25 20:48 -11.70863 -43.88863 36935 ft 451 kts 338°
2026-04-25 20:49 -11.65148 -43.91489 36934 ft 450 kts 337°
2026-04-25 20:49 -11.59444 -43.94109 36935 ft 449 kts 337°
2026-04-25 20:50 -11.53785 -43.96706 36931 ft 449 kts 337°
2026-04-25 20:50 -11.48099 -43.99314 36933 ft 449 kts 337°
2026-04-25 20:51 -11.42399 -44.01928 36929 ft 449 kts 337°
2026-04-25 20:51 -11.36709 -44.04536 36933 ft 449 kts 337°
2026-04-25 20:52 -11.31979 -44.06704 36930 ft 448 kts 337°
2026-04-25 20:52 -11.25382 -44.09726 36934 ft 447 kts 337°
2026-04-25 20:53 -11.19704 -44.12325 36933 ft 447 kts 337°
2026-04-25 20:53 -11.14036 -44.14948 36940 ft 448 kts 335°
2026-04-25 20:54 -11.08524 -44.17814 36939 ft 448 kts 333°
2026-04-25 20:54 -11.03026 -44.20805 36935 ft 448 kts 333°
2026-04-25 20:55 -10.97519 -44.23788 36939 ft 448 kts 333°
2026-04-25 20:55 -10.92006 -44.26744 36941 ft 448 kts 333°
2026-04-25 20:56 -10.86487 -44.29690 36935 ft 448 kts 333°
2026-04-25 20:56 -10.81006 -44.32613 36933 ft 448 kts 333°
2026-04-25 20:57 -10.75493 -44.35553 36942 ft 447 kts 333°
2026-04-25 20:57 -10.69993 -44.38486 36939 ft 446 kts 333°
2026-04-25 20:58 -10.64497 -44.41416 36938 ft 446 kts 333°
2026-04-25 20:58 -10.59003 -44.44343 36933 ft 446 kts 333°
2026-04-25 20:59 -10.53543 -44.47251 36928 ft 446 kts 333°
2026-04-25 20:59 -10.48049 -44.50175 36928 ft 446 kts 333°
2026-04-25 21:00 -10.44413 -44.52111 36929 ft 445 kts 333°
2026-04-25 21:01 -10.34373 -44.57451 36930 ft 445 kts 333°
2026-04-25 21:01 -10.28896 -44.60362 36925 ft 445 kts 333°
2026-04-25 21:02 -10.23409 -44.63278 36919 ft 445 kts 333°
2026-04-25 21:02 -10.17925 -44.66191 36919 ft 445 kts 333°
2026-04-25 21:03 -10.12446 -44.69101 36915 ft 444 kts 333°
2026-04-25 21:03 -10.07006 -44.71988 36917 ft 444 kts 333°
2026-04-25 21:04 -10.01527 -44.74895 36913 ft 444 kts 333°
2026-04-25 21:04 -9.96054 -44.77798 36912 ft 444 kts 333°
2026-04-25 21:05 -9.90576 -44.80702 36916 ft 444 kts 333°
2026-04-25 21:05 -9.85109 -44.83599 36917 ft 443 kts 333°
2026-04-25 21:06 -9.79686 -44.86472 36919 ft 443 kts 333°
2026-04-25 21:06 -9.74221 -44.89366 36917 ft 443 kts 333°
2026-04-25 21:07 -9.68760 -44.92257 36922 ft 443 kts 333°
2026-04-25 21:07 -9.63297 -44.95149 36925 ft 443 kts 333°
2026-04-25 21:08 -9.57835 -44.98038 36928 ft 443 kts 333°
2026-04-25 21:08 -9.52431 -45.00954 36930 ft 443 kts 331°
2026-04-25 21:09 -9.44405 -45.05606 36929 ft 443 kts 331°
2026-04-25 21:09 -9.39059 -45.08707 36929 ft 443 kts 331°
2026-04-25 21:10 -9.33741 -45.11788 36930 ft 443 kts 331°
2026-04-25 21:10 -9.28398 -45.14881 36930 ft 442 kts 331°
2026-04-25 21:11 -9.23057 -45.17971 36930 ft 442 kts 331°
2026-04-25 21:11 -9.17711 -45.21064 36928 ft 443 kts 331°
2026-04-25 21:12 -9.12359 -45.24158 36922 ft 443 kts 332°
2026-04-25 21:12 -9.08806 -45.26212 36923 ft 444 kts 332°
2026-04-25 21:13 -9.01664 -45.30338 36922 ft 444 kts 332°
2026-04-25 21:13 -8.96292 -45.33441 36919 ft 444 kts 332°
2026-04-25 21:14 -8.90923 -45.36541 36921 ft 444 kts 332°
2026-04-25 21:14 -8.85580 -45.39625 36920 ft 446 kts 332°
2026-04-25 21:15 -8.80178 -45.42742 36919 ft 448 kts 332°
2026-04-25 21:15 -8.74768 -45.45862 36917 ft 448 kts 332°
2026-04-25 21:16 -8.69390 -45.48963 36917 ft 448 kts 332°
2026-04-25 21:16 -8.63981 -45.52081 36914 ft 448 kts 332°
2026-04-25 21:17 -8.58556 -45.55207 36909 ft 450 kts 332°
2026-04-25 21:17 -8.53114 -45.58342 36907 ft 450 kts 332°
2026-04-25 21:18 -8.47710 -45.61454 36915 ft 450 kts 332°
2026-04-25 21:18 -8.42272 -45.64584 36913 ft 450 kts 332°
2026-04-25 21:19 -8.36838 -45.67711 36914 ft 450 kts 332°
2026-04-25 21:19 -8.31398 -45.70841 36915 ft 450 kts 332°
2026-04-25 21:20 -8.27795 -45.72913 36910 ft 450 kts 332°
2026-04-25 21:20 -8.20558 -45.77073 36912 ft 450 kts 332°
2026-04-25 21:21 -8.15120 -45.80199 36916 ft 450 kts 332°
2026-04-25 21:21 -8.09663 -45.83334 36914 ft 453 kts 332°
2026-04-25 21:22 -8.04185 -45.86480 36915 ft 453 kts 332°
2026-04-25 21:22 -7.98746 -45.89604 36921 ft 453 kts 332°
2026-04-25 21:23 -7.93262 -45.92752 36920 ft 453 kts 332°
2026-04-25 21:23 -7.87744 -45.95917 36915 ft 453 kts 332°
2026-04-25 21:24 -7.82296 -45.99043 36922 ft 454 kts 332°
2026-04-25 21:24 -7.76803 -46.02193 36917 ft 454 kts 332°
2026-04-25 21:25 -7.71314 -46.05340 36912 ft 454 kts 332°
2026-04-25 21:25 -7.65828 -46.08484 36918 ft 454 kts 332°
2026-04-25 21:26 -7.60336 -46.11630 36916 ft 454 kts 332°
2026-04-25 21:26 -7.54882 -46.14755 36918 ft 454 kts 332°
2026-04-25 21:27 -7.49384 -46.17903 36918 ft 454 kts 332°
2026-04-25 21:27 -7.43886 -46.21050 36921 ft 455 kts 332°
2026-04-25 21:28 -7.39317 -46.23665 36926 ft 455 kts 332°
2026-04-25 21:28 -7.32884 -46.27346 36929 ft 455 kts 332°
2026-04-25 21:29 -7.27406 -46.30479 36928 ft 455 kts 332°
2026-04-25 21:29 -7.21900 -46.33627 36929 ft 455 kts 332°
2026-04-25 21:30 -7.16381 -46.36782 36936 ft 456 kts 332°
2026-04-25 21:30 -7.12731 -46.38868 36941 ft 456 kts 332°
2026-04-25 21:31 -7.05386 -46.43064 36942 ft 456 kts 332°
2026-04-25 21:31 -6.99868 -46.46216 36943 ft 456 kts 332°
2026-04-25 21:32 -6.95275 -46.48839 36943 ft 456 kts 332°
2026-04-25 21:32 -6.89754 -46.51990 36947 ft 456 kts 332°
2026-04-25 21:33 -6.83343 -46.55649 36941 ft 455 kts 332°
2026-04-25 21:33 -6.78768 -46.58260 36933 ft 455 kts 332°
2026-04-25 21:34 -6.73251 -46.61406 36936 ft 456 kts 332°
2026-04-25 21:34 -6.67740 -46.64549 36934 ft 456 kts 332°
2026-04-25 21:35 -6.62221 -46.67695 36945 ft 456 kts 332°
2026-04-25 21:35 -6.56703 -46.70840 36945 ft 456 kts 332°
2026-04-25 21:36 -6.51219 -46.73965 36941 ft 456 kts 332°
2026-04-25 21:36 -6.45694 -46.77112 36941 ft 456 kts 332°
2026-04-25 21:37 -6.41106 -46.79726 36943 ft 456 kts 332°
2026-04-25 21:37 -6.34648 -46.83402 36937 ft 457 kts 332°
2026-04-25 21:38 -6.29153 -46.86531 36936 ft 457 kts 332°
2026-04-25 21:38 -6.23616 -46.89682 36944 ft 457 kts 332°
2026-04-25 21:39 -6.18077 -46.92833 36941 ft 457 kts 332°
2026-04-25 21:39 -6.12539 -46.95983 36937 ft 457 kts 332°
2026-04-25 21:40 -6.07042 -46.99110 36939 ft 456 kts 332°
2026-04-25 21:40 -6.01530 -47.02244 36936 ft 455 kts 332°
2026-04-25 21:41 -5.96024 -47.05373 36941 ft 455 kts 332°
2026-04-25 21:41 -5.90516 -47.08503 36937 ft 455 kts 332°
2026-04-25 21:42 -5.85007 -47.11633 36938 ft 455 kts 332°
2026-04-25 21:42 -5.79532 -47.14743 36945 ft 455 kts 332°
2026-04-25 21:43 -5.74025 -47.17870 36947 ft 455 kts 332°
2026-04-25 21:43 -5.68522 -47.20995 36943 ft 454 kts 332°
2026-04-25 21:44 -5.63029 -47.24113 36946 ft 453 kts 332°
2026-04-25 21:45 -5.54821 -47.28771 36917 ft 454 kts 332°
2026-04-25 21:45 -5.49316 -47.31894 36925 ft 455 kts 332°
2026-04-25 21:46 -5.43806 -47.35020 36923 ft 455 kts 332°
2026-04-25 21:46 -5.38295 -47.38145 36929 ft 455 kts 332°
2026-04-25 21:47 -5.32821 -47.41249 36931 ft 455 kts 332°
2026-04-25 21:47 -5.27300 -47.44378 36931 ft 456 kts 332°
2026-04-25 21:48 -5.21772 -47.47511 36936 ft 456 kts 332°
2026-04-25 21:48 -5.16239 -47.50646 36953 ft 456 kts 332°
2026-04-25 21:49 -5.10711 -47.53778 36959 ft 456 kts 332°
2026-04-25 21:49 -5.05219 -47.56889 36954 ft 456 kts 332°
2026-04-25 21:50 -4.99687 -47.60021 36951 ft 457 kts 332°
2026-04-25 21:50 -4.94155 -47.63153 36955 ft 457 kts 332°
2026-04-25 21:51 -4.88623 -47.66285 36954 ft 456 kts 332°
2026-04-25 21:51 -4.83091 -47.69416 36955 ft 456 kts 332°
2026-04-25 21:52 -4.77597 -47.72524 36955 ft 456 kts 332°
2026-04-25 21:52 -4.72069 -47.75652 36964 ft 456 kts 332°
2026-04-25 21:53 -4.66537 -47.78781 36960 ft 456 kts 332°
2026-04-25 21:53 -4.61005 -47.81909 36959 ft 456 kts 332°
2026-04-25 21:54 -4.55478 -47.85035 36958 ft 456 kts 332°
2026-04-25 21:54 -4.49991 -47.88137 36960 ft 456 kts 332°
2026-04-25 21:55 -4.44464 -47.91261 36958 ft 456 kts 332°
2026-04-25 21:55 -4.38941 -47.94382 36957 ft 456 kts 332°
2026-04-25 21:56 -4.33413 -47.97506 36953 ft 456 kts 332°
2026-04-25 21:56 -4.27892 -48.00625 36955 ft 456 kts 332°
2026-04-25 21:57 -4.22402 -48.03725 36967 ft 457 kts 332°
2026-04-25 21:57 -4.16856 -48.06858 36958 ft 458 kts 332°
2026-04-25 21:58 -4.11302 -48.09994 36955 ft 458 kts 332°
2026-04-25 21:58 -4.05742 -48.13133 36954 ft 458 kts 332°
2026-04-25 21:59 -4.00226 -48.16246 36959 ft 458 kts 332°
2026-04-25 21:59 -3.94671 -48.19382 36958 ft 459 kts 332°
2026-04-25 22:00 -3.86329 -48.24089 36967 ft 459 kts 332°
2026-04-25 22:00 -3.80766 -48.27228 36952 ft 459 kts 332°
2026-04-25 22:01 -3.75242 -48.30344 36953 ft 459 kts 332°
2026-04-25 22:01 -3.70582 -48.32972 36950 ft 459 kts 332°
2026-04-25 22:02 -3.64109 -48.36623 36954 ft 460 kts 333°
2026-04-25 22:02 -3.58526 -48.39770 36949 ft 460 kts 333°
2026-04-25 22:03 -3.52947 -48.42916 36958 ft 460 kts 333°
2026-04-25 22:03 -3.47077 -48.45116 36962 ft 452 kts 355°
2026-04-25 22:04 -3.40817 -48.45588 36949 ft 452 kts 360°
2026-04-25 22:04 -3.34508 -48.45934 36952 ft 455 kts 360°
2026-04-25 22:05 -3.28181 -48.46296 36955 ft 455 kts 359°
2026-04-25 22:05 -3.21897 -48.46664 36955 ft 455 kts 359°
2026-04-25 22:06 -3.15570 -48.47036 36951 ft 455 kts 359°
2026-04-25 22:06 -3.09245 -48.47409 36947 ft 455 kts 359°
2026-04-25 22:07 -3.03982 -48.47719 36953 ft 455 kts 359°
2026-04-25 22:07 -2.96632 -48.48153 36945 ft 455 kts 359°
2026-04-25 22:08 -2.90307 -48.48526 36944 ft 456 kts 359°
2026-04-25 22:08 -2.87151 -48.48712 36482 ft 453 kts 359°
2026-04-25 22:08 -2.83994 -48.48899 35520 ft 457 kts 359°
2026-04-25 22:09 -2.80803 -48.49086 34525 ft 463 kts 359°
2026-04-25 22:09 -2.77577 -48.49275 33568 ft 466 kts 359°
2026-04-25 22:09 -2.74329 -48.49467 32553 ft 468 kts 359°
2026-04-25 22:09 -2.71241 -48.49649 31624 ft 470 kts 359°
2026-04-25 22:10 -2.68020 -48.49839 30683 ft 471 kts 359°
2026-04-25 22:10 -2.64745 -48.50033 29670 ft 472 kts 359°
2026-04-25 22:10 -2.61458 -48.50227 28490 ft 474 kts 359°
2026-04-25 22:10 -2.58158 -48.50421 27278 ft 476 kts 359°
2026-04-25 22:11 -2.54839 -48.50616 26066 ft 479 kts 358°
2026-04-25 22:11 -2.51502 -48.50813 24892 ft 481 kts 358°
2026-04-25 22:11 -2.48165 -48.51010 23765 ft 481 kts 358°
2026-04-25 22:11 -2.44840 -48.51207 22628 ft 477 kts 358°
2026-04-25 22:12 -2.41586 -48.51400 21557 ft 471 kts 358°
2026-04-25 22:12 -2.38339 -48.51592 20543 ft 464 kts 358°
2026-04-25 22:12 -2.35145 -48.51781 19583 ft 457 kts 358°
2026-04-25 22:12 -2.33053 -48.51904 18922 ft 453 kts 358°
2026-04-25 22:13 -2.28890 -48.52150 17615 ft 443 kts 358°
2026-04-25 22:13 -2.25838 -48.52330 16604 ft 435 kts 358°
2026-04-25 22:13 -2.22838 -48.52507 15575 ft 429 kts 357°
2026-04-25 22:13 -2.19876 -48.52681 14554 ft 424 kts 357°
2026-04-25 22:14 -2.16992 -48.52851 13558 ft 419 kts 357°
2026-04-25 22:14 -2.14097 -48.53022 12491 ft 413 kts 357°
2026-04-25 22:14 -2.11249 -48.53191 11478 ft 407 kts 357°
2026-04-25 22:14 -2.08446 -48.53356 10671 ft 398 kts 358°
2026-04-25 22:15 -2.05742 -48.53517 10190 ft 380 kts 358°
2026-04-25 22:15 -2.03181 -48.53669 9992 ft 356 kts 358°
2026-04-25 22:15 -2.00791 -48.53810 9949 ft 336 kts 358°
2026-04-25 22:16 -1.96372 -48.54071 9518 ft 303 kts 358°
2026-04-25 22:16 -1.94313 -48.54192 9394 ft 293 kts 358°
2026-04-25 22:16 -1.92276 -48.54311 9269 ft 293 kts 358°
2026-04-25 22:16 -1.90237 -48.54430 9111 ft 294 kts 358°
2026-04-25 22:17 -1.88197 -48.54549 8866 ft 293 kts 358°
2026-04-25 22:17 -1.86168 -48.54669 8621 ft 292 kts 358°
2026-04-25 22:17 -1.84170 -48.54786 8384 ft 291 kts 358°
2026-04-25 22:17 -1.82154 -48.54905 8134 ft 290 kts 358°
2026-04-25 22:18 -1.80145 -48.55023 7889 ft 289 kts 358°
2026-04-25 22:18 -1.78141 -48.55142 7657 ft 288 kts 358°
2026-04-25 22:18 -1.76176 -48.55258 7457 ft 277 kts 358°
2026-04-25 22:18 -1.74282 -48.55371 7181 ft 269 kts 358°
2026-04-25 22:19 -1.72427 -48.55480 6831 ft 265 kts 358°
2026-04-25 22:19 -1.70602 -48.55588 6485 ft 262 kts 358°
2026-04-25 22:19 -1.68807 -48.55693 6132 ft 262 kts 358°
2026-04-25 22:19 -1.66987 -48.55800 5770 ft 262 kts 358°
2026-04-25 22:20 -1.65165 -48.55907 5442 ft 261 kts 358°
2026-04-25 22:20 -1.63359 -48.56013 5145 ft 260 kts 358°
2026-04-25 22:20 -1.61586 -48.56118 4993 ft 250 kts 358°
2026-04-25 22:20 -1.59865 -48.56283 4658 ft 250 kts 349°
2026-04-25 22:21 -1.58198 -48.56769 4352 ft 247 kts 342°
2026-04-25 22:21 -1.56597 -48.57357 4004 ft 242 kts 340°
2026-04-25 22:21 -1.55082 -48.57935 3876 ft 225 kts 340°
2026-04-25 22:21 -1.53654 -48.58480 3618 ft 217 kts 340°
2026-04-25 22:22 -1.52262 -48.58986 3275 ft 214 kts 345°
2026-04-25 22:22 -1.50801 -48.59178 2859 ft 211 kts
2026-04-25 22:22 -1.49423 -48.58725 2476 ft 209 kts 28°
2026-04-25 22:22 -1.48199 -48.57971 2120 ft 204 kts 40°
2026-04-25 22:23 -1.47173 -48.56979 2006 ft 207 kts 47°
2026-04-25 22:23 -1.46163 -48.55950 1991 ft 207 kts 46°
2026-04-25 22:23 -1.45149 -48.54932 1803 ft 206 kts 46°
2026-04-25 22:23 -1.44142 -48.53921 1542 ft 201 kts 46°
2026-04-25 22:24 -1.43209 -48.52976 1307 ft 185 kts 46°
2026-04-25 22:24 -1.42340 -48.52096 1045 ft 171 kts 47°
2026-04-25 22:24 -1.41538 -48.51284 824 ft 158 kts 47°
2026-04-25 22:24 -1.40693 -48.50426 626 ft 181 kts 47°
2026-04-25 22:25 -1.39833 -48.49557 389 ft 168 kts 46°
2026-04-25 22:25 -1.39050 -48.48764 153 ft 153 kts 45°
2026-04-25 22:25 -1.38342 -48.48051 59 ft 135 kts 45°
2026-04-25 22:25 -1.37769 -48.47476 52 ft 83 kts 45°
2026-04-25 22:26 -1.37575 -48.47284 55 ft 1 kts 47°
2026-04-25 22:26 -1.37581 -48.47278 52 ft 1 kts 161°
2026-04-25 22:26 -1.37591 -48.47287 55 ft 11 kts 221°
2026-04-25 22:26 -1.37684 -48.47379 49 ft 20 kts 225°
2026-04-25 22:27 -1.37810 -48.47505 52 ft 30 kts 225°
2026-04-25 22:27 -1.37975 -48.47622 48 ft 28 kts 195°
2026-04-25 22:27 -1.38162 -48.47638 54 ft 26 kts 184°
2026-04-25 22:27 -1.38342 -48.47650 55 ft 28 kts 184°
2026-04-25 22:28 -1.38530 -48.47662 58 ft 26 kts 184°
2026-04-25 22:28 -1.38664 -48.47734 59 ft 22 kts 256°
2026-04-25 22:28 -1.38750 -48.47806 58 ft 16 kts 187°
2026-04-25 22:28 -1.38834 -48.47867 56 ft 15 kts 223°
2026-04-25 22:29 -1.38865 -48.47897 58 ft 0 kts 226°